Tracking 29493 objects as of 8-Sep-2024
HD Live streaming from Space Station
objects crossing your sky now

FENGYUN 1C DEB

Track FENGYUN 1C DEB now!
10-day predictions


NORAD ID: 30362
Int'l Code: 1999-025ABZ
Perigee: 810.7 km
Apogee: 954.1 km
Inclination: 99.0 °
Period: 102.5 minutes
Semi major axis: 7253 km
RCS: 0.04 m2 (small)
Launch date: May 10, 1999
Source: People's Republic of China (PRC)
Launch site: Taiyaun Space Center, China (TSC)

Note: This is SATELLITE DEBRIS
Your satellite tracking list
Your tracking list is empty




NASA's NSSDC Master Catalog

Two Line Element Set (TLE):
1 30362U 99025ABZ 24252.28510634  .00011719  00000-0  69357-2 0  9994
2 30362  99.0438 167.0834 0098866 192.8086 167.0568 14.05375426896833
Source of the keplerian elements: AFSPC